IRIDIUM 84 [P]

Last updated on Sept. 26, 2018, 2:52 a.m. UTC

1 25530U 98066D   18267.67955943  .03031481 -15452-5  91662-2 0  9995
2 25530  86.3663 155.1925 0357921 147.0457 215.5467 15.33978204 43652

Satellite is not in orbit.